• In Deutschland
  • Länderverzeichnis
  • Für 7 Tage
  • Wassertemperatur
  • Satellitenkarten
  • Wetterkarte
  • Widgets
  • user-avatar
    Anmelden

    Stündliche Wetter Bad Feilnbach

    Heute, 11 Dezember, Montag

    Zeit Temperatur Niederschläge Wind Luftdruck Luftfeuchtigkeit
    00:00 0°C° 0 mm 3 m/S 695 mmHg 78%
    01:00 +2°C° 0 mm 2 m/S 695 mmHg 80%
    02:00 +2°C° 0,1 mm 2 m/S 695 mmHg 80%
    03:00 +2°C° 0,1 mm 2 m/S 694 mmHg 81%
    04:00 +2°C° 0,1 mm 2 m/S 694 mmHg 82%
    05:00 +2°C° 0 mm 2 m/S 694 mmHg 82%
    06:00 +3°C° 0 mm 2 m/S 693 mmHg 82%
    07:00 +3°C° 0 mm 3 m/S 693 mmHg 82%
    08:00 +3°C° 0 mm 3 m/S 693 mmHg 82%
    09:00 +4°C° 0 mm 3 m/S 692 mmHg 82%
    10:00 +4°C° 0 mm 3 m/S 692 mmHg 82%
    11:00 +5°C° 0 mm 3 m/S 691 mmHg 83%
    12:00 +7°C° 0 mm 3 m/S 691 mmHg 84%
    13:00 +7°C° 0 mm 3 m/S 690 mmHg 85%
    14:00 +7°C° 0 mm 3 m/S 690 mmHg 85%
    15:00 +7°C° 0 mm 3 m/S 690 mmHg 85%
    16:00 +6°C° 0 mm 2 m/S 689 mmHg 85%
    17:00 +6°C° 0 mm 2 m/S 690 mmHg 86%
    18:00 +5°C° 0 mm 2 m/S 691 mmHg 87%
    19:00 +4°C° 0 mm 2 m/S 691 mmHg 88%
    20:00 +4°C° 0,1 mm 2 m/S 692 mmHg 89%
    21:00 +4°C° 0,1 mm 2 m/S 693 mmHg 90%
    22:00 +4°C° 0,1 mm 2 m/S 694 mmHg 91%
    23:00 +4°C° 0,9 mm 2 m/S 694 mmHg 92%

    Morgen, 12 Dezember, Dienstag

    Zeit Temperatur Niederschläge Wind Luftdruck Luftfeuchtigkeit
    00:00 +3°C° 0,9 mm 3 m/S 695 mmHg 92%
    01:00 +3°C° 0,9 mm 3 m/S 695 mmHg 93%
    02:00 +2°C° 1 mm 3 m/S 696 mmHg 92%
    03:00 +2°C° 1 mm 3 m/S 697 mmHg 92%
    04:00 +2°C° 1 mm 3 m/S 698 mmHg 92%
    05:00 +2°C° 0,5 mm 3 m/S 699 mmHg 92%
    06:00 +2°C° 0,5 mm 3 m/S 700 mmHg 92%
    07:00 +1°C° 0,5 mm 3 m/S 701 mmHg 92%
    08:00 +1°C° 0,6 mm 3 m/S 702 mmHg 91%
    09:00 +1°C° 0,6 mm 3 m/S 703 mmHg 91%
    10:00 0°C° 0,6 mm 3 m/S 705 mmHg 91%
    11:00 0°C° 0,6 mm 3 m/S 705 mmHg 91%
    12:00 0°C° 0,6 mm 3 m/S 706 mmHg 90%
    13:00 0°C° 0,6 mm 3 m/S 707 mmHg 90%
    14:00 0°C° 0,4 mm 3 m/S 707 mmHg 91%
    15:00 -1°C° 0,4 mm 2 m/S 708 mmHg 91%
    16:00 -1°C° 0,4 mm 2 m/S 709 mmHg 92%
    17:00 -1°C° 0,2 mm 2 m/S 710 mmHg 92%
    18:00 -2°C° 0,2 mm 2 m/S 710 mmHg 92%
    19:00 -2°C° 0,2 mm 2 m/S 711 mmHg 92%
    20:00 -2°C° 0,1 mm 2 m/S 712 mmHg 91%
    21:00 -2°C° 0,1 mm 2 m/S 712 mmHg 91%
    22:00 -2°C° 0,1 mm 2 m/S 713 mmHg 91%
    23:00 -2°C° 0 mm 2 m/S 713 mmHg 91%

    übermorgen, 13 Dezember, Mittwoch

    Zeit Temperatur Niederschläge Wind Luftdruck Luftfeuchtigkeit
    00:00 -2°C° 0 mm 2 m/S 713 mmHg 90%
    01:00 -3°C° 0 mm 2 m/S 714 mmHg 90%
    02:00 -4°C° 0 mm 2 m/S 714 mmHg 89%
    03:00 -4°C° 0 mm 2 m/S 714 mmHg 88%
    04:00 -5°C° 0 mm 2 m/S 714 mmHg 88%
    05:00 -6°C° 0 mm 2 m/S 714 mmHg 86%
    06:00 -6°C° 0 mm 2 m/S 714 mmHg 84%
    07:00 -7°C° 0 mm 2 m/S 714 mmHg 83%
    08:00 -5°C° 0 mm 2 m/S 714 mmHg 80%
    09:00 -4°C° 0 mm 2 m/S 714 mmHg 77%
    10:00 -3°C° 0 mm 2 m/S 714 mmHg 75%
    11:00 -1°C° 0 mm 2 m/S 713 mmHg 74%
    12:00 +1°C° 0 mm 2 m/S 712 mmHg 74%
    13:00 +3°C° 0 mm 2 m/S 711 mmHg 73%
    14:00 +2°C° 0 mm 2 m/S 711 mmHg 76%
    15:00 +1°C° 0 mm 2 m/S 710 mmHg 78%
    16:00 +1°C° 0 mm 2 m/S 709 mmHg 81%
    17:00 -1°C° 0 mm 2 m/S 709 mmHg 80%
    18:00 -1°C° 0 mm 2 m/S 709 mmHg 80%
    19:00 -1°C° 0 mm 2 m/S 709 mmHg 80%
    20:00 -1°C° 0 mm 2 m/S 709 mmHg 79%
    21:00 -1°C° 0 mm 2 m/S 709 mmHg 79%
    22:00 -1°C° 0 mm 2 m/S 708 mmHg 78%
    23:00 +1°C° 0,2 mm 2 m/S 708 mmHg 77%

    14 Dezember, Donnerstag

    Zeit Temperatur Niederschläge Wind Luftdruck Luftfeuchtigkeit
    00:00 0°C° 0,2 mm 3 m/S 707 mmHg 76%
    01:00 0°C° 0,2 mm 3 m/S 707 mmHg 75%
    02:00 0°C° 0,1 mm 3 m/S 706 mmHg 76%
    03:00 +1°C° 0,1 mm 3 m/S 705 mmHg 76%
    04:00 +1°C° 0,1 mm 3 m/S 705 mmHg 76%
    05:00 +1°C° 0,2 mm 3 m/S 705 mmHg 76%
    06:00 +1°C° 0,2 mm 3 m/S 705 mmHg 76%
    07:00 +2°C° 0,2 mm 3 m/S 704 mmHg 77%
    08:00 +2°C° 0 mm 3 m/S 704 mmHg 78%
    09:00 +3°C° 0 mm 3 m/S 704 mmHg 79%
    10:00 +3°C° 0 mm 3 m/S 704 mmHg 81%
    11:00 +3°C° 0,1 mm 3 m/S 703 mmHg 83%
    12:00 +4°C° 0,1 mm 3 m/S 703 mmHg 84%
    13:00 +4°C° 0,1 mm 3 m/S 702 mmHg 86%
    14:00 +4°C° 0 mm 3 m/S 701 mmHg 86%
    15:00 +3°C° 0 mm 3 m/S 701 mmHg 86%
    16:00 +4°C° 0 mm 2 m/S 700 mmHg 86%
    17:00 +2°C° 0,2 mm 3 m/S 700 mmHg 85%
    18:00 +2°C° 0,2 mm 3 m/S 700 mmHg 83%
    19:00 +2°C° 0,2 mm 3 m/S 700 mmHg 82%
    20:00 +2°C° 1,5 mm 3 m/S 700 mmHg 86%
    21:00 +1°C° 1,5 mm 3 m/S 701 mmHg 89%
    22:00 +2°C° 1,5 mm 2 m/S 701 mmHg 93%
    23:00 +2°C° 1,3 mm 2 m/S 701 mmHg 93%

    15 Dezember, Freitag

    Zeit Temperatur Niederschläge Wind Luftdruck Luftfeuchtigkeit
    00:00 +2°C° 1,3 mm 2 m/S 701 mmHg 93%
    01:00 +1°C° 1,3 mm 3 m/S 701 mmHg 94%
    02:00 +2°C° 1 mm 2 m/S 701 mmHg 94%
    03:00 +2°C° 1 mm 2 m/S 701 mmHg 95%
    04:00 +3°C° 1 mm 1 m/S 701 mmHg 96%
    05:00 +3°C° 0,7 mm 1 m/S 701 mmHg 95%
    06:00 +2°C° 0,7 mm 1 m/S 701 mmHg 95%
    07:00 +1°C° 0,7 mm 2 m/S 702 mmHg 95%
    08:00 +1°C° 0,2 mm 2 m/S 702 mmHg 95%
    09:00 +2°C° 0,2 mm 1 m/S 702 mmHg 94%
    10:00 +3°C° 0,2 mm 1 m/S 702 mmHg 94%
    11:00 +2°C° 0,2 mm 2 m/S 701 mmHg 93%
    12:00 +2°C° 0,2 mm 2 m/S 701 mmHg 92%
    13:00 +2°C° 0,2 mm 2 m/S 701 mmHg 92%
    14:00 +1°C° 0,1 mm 2 m/S 701 mmHg 91%
    15:00 +1°C° 0,1 mm 2 m/S 701 mmHg 91%
    16:00 -1°C° 0,1 mm 2 m/S 701 mmHg 90%
    17:00 -1°C° 0 mm 2 m/S 701 mmHg 90%
    18:00 -2°C° 0 mm 2 m/S 702 mmHg 89%
    19:00 -2°C° 0 mm 2 m/S 702 mmHg 88%
    20:00 -2°C° 0,1 mm 2 m/S 702 mmHg 87%
    21:00 -2°C° 0,1 mm 2 m/S 703 mmHg 86%
    22:00 -2°C° 0,1 mm 3 m/S 703 mmHg 86%
    23:00 -2°C° 0,5 mm 3 m/S 704 mmHg 88%

    16 Dezember, Samstag

    Zeit Temperatur Niederschläge Wind Luftdruck Luftfeuchtigkeit
    00:00 -3°C° 0,5 mm 4 m/S 704 mmHg 89%
    01:00 -3°C° 0,5 mm 4 m/S 705 mmHg 91%
    02:00 -3°C° 0,2 mm 4 m/S 705 mmHg 91%
    03:00 -4°C° 0,2 mm 3 m/S 706 mmHg 91%
    04:00 -5°C° 0,2 mm 3 m/S 706 mmHg 91%
    05:00 -5°C° 0,1 mm 3 m/S 707 mmHg 90%
    06:00 -4°C° 0,1 mm 3 m/S 708 mmHg 89%
    07:00 -4°C° 0,1 mm 3 m/S 708 mmHg 88%
    08:00 -2°C° 0,1 mm 3 m/S 709 mmHg 88%
    09:00 -2°C° 0,1 mm 3 m/S 709 mmHg 87%
    10:00 -1°C° 0,1 mm 3 m/S 710 mmHg 86%
    11:00 -1°C° 0,1 mm 3 m/S 710 mmHg 85%
    12:00 -1°C° 0,1 mm 4 m/S 710 mmHg 83%
    13:00 -1°C° 0,1 mm 4 m/S 710 mmHg 81%
    14:00 -1°C° 0 mm 3 m/S 710 mmHg 83%
    15:00 -1°C° 0 mm 3 m/S 710 mmHg 85%
    16:00 -2°C° 0 mm 2 m/S 711 mmHg 87%
    17:00 -3°C° 0,1 mm 2 m/S 711 mmHg 88%
    18:00 -3°C° 0,1 mm 2 m/S 712 mmHg 89%
    19:00 -3°C° 0,1 mm 2 m/S 712 mmHg 90%
    20:00 -3°C° 0,1 mm 2 m/S 712 mmHg 90%
    21:00 -3°C° 0,1 mm 2 m/S 713 mmHg 90%
    22:00 -3°C° 0,1 mm 2 m/S 713 mmHg 90%
    23:00 -4°C° 0,2 mm 2 m/S 713 mmHg 90%
    Mehr zeigen